DW7418 Weather Reports


time (UTC)temp
F
wind
direction
speed
knots
gust
knots
rain 1hr
in
rain 24hr
in
rain mn
in
humidity
%
barometer
mb
20260507060003 49 339 1.7 7.0 0.00 0.00 0.00 1 1015.5
20260507055403 48 338 1.7 4.3 0.00 0.00 0.00 1 1015.5
20260507054503 47 337 1.7 5.2 0.00 0.00 0.00 1 1015.4
20260507053603 46 337 1.7 7.0 0.00 0.00 0.00 1 1015.3
20260507052703 45 337 1.7 5.2 0.00 0.00 0.00 1 1015.2
20260507052018 45 338 1.7 4.3 0.00 0.00 0.00 1 1015.2
20260507050903 44 338 1.7 4.3 0.00 0.00 0.00 1 1015.1
20260507050003 44 338 1.7 4.3 0.00 0.00 0.00 1 1015.0
20260507045618 44 338 1.7 4.3 0.00 0.00 0.00 1 1015.0
20260507044503 44 338 1.7 4.3 0.00 0.00 0.00 1 1014.9
20260507043603 43 338 1.7 4.3 0.00 0.00 0.00 1 1014.9
20260507042703 43 338 1.7 4.3 0.00 0.00 0.00 1 1014.8
20260507041803 43 338 1.7 4.3 0.00 0.00 0.00 1 1014.7
20260507040903 43 337 1.7 4.3 0.00 0.00 0.00 1 1014.6
20260507040003 43 336 1.7 5.2 0.00 0.00 0.00 1 1014.6
20260507035403 43 336 2.6 5.2 0.00 0.00 0.00 1 1014.6
20260507034717 43 336 1.7 5.2 0.00 0.00 0.00 1 1014.5
20260507033818 43 337 1.7 4.3 0.00 0.00 0.00 1 1014.5
20260507032703 43 336 1.7 4.3 0.00 0.00 0.00 1 1014.4
20260507031803 43 335 1.7 4.3 0.00 0.00 0.00 1 1014.4
20260507030903 43 334 1.7 3.5 0.00 0.00 0.00 1 1014.3
20260507030003 43 334 1.7 3.5 0.00 0.00 0.00 1 1014.3
20260507025403 43 334 0.9 2.6 0.00 0.00 0.00 1 1014.3
20260507024503 43 334 0.9 2.6 0.00 0.00 0.00 1 1014.2
20260507023818 43 335 0.9 2.6 0.00 0.00 0.00 1 1014.2
20260507022703 43 335 0.9 2.6 0.00 0.00 0.00 1 1014.1
20260507022018 43 335 0.9 2.6 0.00 0.00 0.00 1 1014.1
20260507020903 44 335 0.9 2.6 0.00 0.00 0.00 1 1013.9
20260507020003 44 335 0.9 2.6 0.00 0.00 0.00 1 1013.9
20260507015403 44 335 0.9 2.6 0.00 0.00 0.00 1 1013.8
20260507014503 44 334 0.9 2.6 0.00 0.00 0.00 1 1013.8
20260507013603 44 334 0.9 2.6 0.00 0.00 0.00 1 1013.7
20260507012703 44 334 1.7 2.6 0.00 0.00 0.00 1 1013.8
20260507011803 44 334 0.9 3.5 0.00 0.00 0.00 2 1013.8
20260507010903 44 333 1.7 5.2 0.00 0.00 0.00 3 1013.8
20260507010004 44 336 1.7 5.2 0.00 0.00 0.00 4 1013.7
20260507005403 44 340 1.7 4.3 0.00 0.00 0.00 4 1013.8
20260507004503 45 341 1.7 4.3 0.00 0.00 0.00 5 1013.8
20260507003603 45 341 1.7 4.3 0.00 0.00 0.00 5 1013.8
20260507002918 45 341 1.7 4.3 0.00 0.00 0.00 6 1013.8
20260507001803 45 340 1.7 4.3 0.00 0.00 0.00 7 1013.6
20260507000903 45 340 1.7 4.3 0.00 0.00 0.00 8 1013.7
20260507000004 45 341 1.7 4.3 0.00 0.00 0.00 9 1013.7
20260506235618 45 343 1.7 4.3 0.00 0.00 0.00 10 1013.8
20260506234503 45 344 0.9 3.5 0.00 0.00 0.00 12 1013.7
20260506233603 45 344 0.9 3.5 0.00 0.00 0.00 14 1013.7
20260506232703 45 344 0.9 3.5 0.00 0.00 0.00 16 1013.8
20260506232017 45 344 0.9 3.5 0.00 0.00 0.00 16 1013.7
20260506231117 46 344 0.9 3.5 0.00 0.00 0.00 16 1013.7
20260506230004 46 344 1.7 4.3 0.00 0.00 0.00 16 1013.8
20260506225403 46 343 1.7 4.3 0.00 0.00 0.00 17 1013.7
20260506224503 46 340 1.7 4.3 0.00 0.00 0.00 19 1013.7
20260506223603 46 339 1.7 3.5 0.00 0.00 0.00 20 1013.6
20260506222703 46 338 1.7 4.3 0.00 0.00 0.00 22 1013.5
20260506222017 46 336 1.7 4.3 0.00 0.00 0.00 22 1013.5
20260506220903 46 335 1.7 4.3 0.00 0.00 0.00 25 1013.5
20260506220007 47 340 1.7 3.5 0.00 0.00 0.00 27 1013.5
20260506215403 47 340 1.7 4.3 0.00 0.00 0.00 29 1013.5
20260506214503 47 340 1.7 4.3 0.00 0.00 0.00 31 1013.4
20260506213818 47 341 1.7 4.3 0.00 0.00 0.00 33 1013.4
20260506212703 48 342 1.7 5.2 0.00 0.00 0.00 36 1013.4
20260506211803 48 338 1.7 4.3 0.00 0.00 0.00 39 1013.3
20260506210903 48 346 1.7 4.3 0.00 0.00 0.00 42 1013.2
20260506210217 48 344 1.7 5.2 0.00 0.00 0.00 45 1013.1
20260506205617 48 340 1.7 5.2 0.00 0.00 0.00 47 1013.1
20260506204503 49 356 2.6 7.0 0.00 0.00 0.00 50 1013.1
20260506203603 49 342 2.6 7.8 0.00 0.00 0.00 53 1013.1
20260506202703 49 356 2.6 8.7 0.00 0.00 0.00 55 1013.0
20260506201803 50 348 2.6 7.8 0.00 0.00 0.00 58 1012.9
20260506200903 50 356 2.6 8.7 0.00 0.00 0.00 61 1012.8
20260506200004 50 1 3.5 9.6 0.00 0.00 0.00 65 1012.8
20260506195403 50 352 2.6 7.8 0.00 0.00 0.00 66 1012.7
20260506194508 50 346 3.5 8.7 0.00 0.00 0.00 68 1012.6
20260506193603 51 349 3.5 8.7 0.00 0.00 0.00 69 1012.4
20260506192703 51 351 2.6 8.7 0.00 0.00 0.00 69 1012.3
20260506191803 51 340 2.6 7.8 0.00 0.00 0.00 68 1012.2
20260506190903 52 355 3.5 7.0 0.00 0.00 0.00 67 1012.0
20260506190004 52 358 4.3 10.4 0.00 0.00 0.00 66 1012.0
20260506185403 52 359 4.3 10.4 0.00 0.00 0.00 65 1011.9
20260506184503 53 349 4.3 11.3 0.00 0.00 0.00 66 1011.8
20260506183604 53 6 4.3 12.2 0.00 0.00 0.00 65 1011.7
20260506182703 53 358 3.5 11.3 0.00 0.00 0.00 65 1011.6
20260506182017 53 5 4.3 10.4 0.00 0.00 0.00 66 1011.6
20260506180903 53 8 3.5 10.4 0.00 0.00 0.00 65 1011.4
20260506180004 53 4 3.5 11.3 0.00 0.00 0.00 65 1011.3
20260506175618 54 5 3.5 11.3 0.00 0.00 0.00 65 1011.2
20260506174717 54 4 3.5 13.9 0.00 0.00 0.00 63 1011.1
20260506173603 54 356 3.5 9.6 0.00 0.00 0.00 63 1011.0
20260506172703 54 2 4.3 13.0 0.00 0.00 0.00 63 1010.9
20260506171803 55 359 4.3 13.9 0.00 0.00 0.00 62 1010.8
20260506170903 55 356 5.2 13.9 0.00 0.00 0.00 62 1010.8
20260506170004 55 6 5.2 13.9 0.00 0.00 0.00 63 1010.7
20260506165403 56 353 5.2 14.8 0.00 0.00 0.00 63 1010.7
20260506164503 56 356 6.1 13.9 0.00 0.00 0.00 62 1010.6
20260506163818 57 8 6.1 13.9 0.00 0.00 0.00 62 1010.5
20260506162703 57 360 6.1 14.8 0.00 0.00 0.00 61 1010.5
20260506161803 57 4 5.2 14.8 0.00 0.00 0.00 61 1010.5
20260506160903 57 360 5.2 13.0 0.00 0.00 0.00 61 1010.4
20260506160003 57 4 4.3 15.6 0.00 0.00 0.00 63 1010.4
20260506155403 57 5 4.3 15.6 0.00 0.00 0.00 63 1010.4
20260506154503 57 14 4.3 11.3 0.00 0.00 0.00 62 1010.3
20260506153603 57 13 5.2 12.2 0.00 0.00 0.00 62 1010.3
20260506152703 58 10 4.3 12.2 0.00 0.00 0.00 61 1010.4
20260506151803 58 2 4.3 13.9 0.00 0.00 0.00 61 1010.4
20260506150903 58 7 5.2 13.9 0.00 0.00 0.00 60 1010.4
20260506150217 58 10 5.2 13.9 0.00 0.00 0.00 60 1010.3
20260506145403 59 8 4.3 13.9 0.00 0.00 0.00 59 1010.2
20260506144503 59 3 4.3 15.6 0.00 0.00 0.00 55 1010.2
20260506143603 59 8 5.2 14.8 0.00 0.00 0.00 55 1010.2
20260506142703 59 18 4.3 13.0 0.00 0.00 0.00 54 1010.1
20260506141803 59 18 4.3 13.0 0.00 0.00 0.00 54 1010.1
20260506140903 59 11 5.2 12.2 0.00 0.00 0.00 53 1010.1
20260506140004 59 3 5.2 14.8 0.00 0.00 0.00 54 1010.1
20260506135403 59 14 5.2 14.8 0.00 0.00 0.00 54 1010.1
20260506134503 58 16 5.2 13.0 0.00 0.00 0.00 55 1010.1
20260506133817 58 5 5.2 13.0 0.00 0.00 0.00 54 1010.1
20260506132703 58 6 5.2 15.6 0.00 0.00 0.00 54 1010.1
20260506132018 58 13 5.2 15.6 0.00 0.00 0.00 54 1010.0
20260506130903 58 14 4.3 11.3 0.00 0.00 0.00 51 1010.1
20260506130004 59 9 4.3 13.0 0.00 0.00 0.00 52 1010.0
20260506125403 59 6 3.5 13.0 0.00 0.00 0.00 50 1009.9
20260506124717 59 350 2.6 11.3 0.00 0.00 0.00 50 1009.9
20260506123603 59 13 3.5 13.0 0.00 0.00 0.00 48 1009.8
20260506122703 60 345 2.6 7.8 0.00 0.00 0.00 48 1009.8
20260506121803 60 5 3.5 12.2 0.00 0.00 0.00 45 1009.8
20260506121116 61 4 3.5 12.2 0.00 0.00 0.00 45 1009.8
20260506120003 60 348 3.5 11.3 0.00 0.00 0.00 44 1009.7
20260506115403 61 4 4.3 12.2 0.00 0.00 0.00 44 1009.7
20260506114503 61 5 4.3 11.3 0.00 0.00 0.00 45 1009.7
20260506113603 60 358 5.2 13.0 0.00 0.00 0.00 49 1009.7
20260506112703 59 14 6.1 16.5 0.00 0.00 0.00 50 1009.7
20260506111803 60 1 4.3 14.8 0.00 0.00 0.00 49 1009.8
20260506110903 59 358 3.5 11.3 0.00 0.00 0.00 47 1009.7
20260506110004 58 12 5.2 12.2 0.00 0.00 0.00 49 1009.7
20260506105403 58 17 6.1 16.5 0.00 0.00 0.00 47 1009.8
20260506104503 59 5 4.3 13.9 0.00 0.00 0.00 49 1009.8
20260506103603 59 1 4.3 13.9 0.00 0.00 0.00 49 1009.8
20260506102703 58 4 4.3 14.8 0.00 0.00 0.00 51 1009.7
20260506101803 58 1 4.3 12.2 0.00 0.00 0.00 52 1009.8
20260506100903 58 13 5.2 13.9 0.00 0.00 0.00 51 1009.7
20260506100004 58 3 4.3 13.0 0.00 0.00 0.00 51 1009.6
20260506095617 58 7 5.2 13.0 0.00 0.00 0.00 53 1009.6
20260506094503 57 9 3.5 11.3 0.00 0.00 0.00 52 1009.6
20260506093603 57 1 4.3 14.8 0.00 0.00 0.00 53 1009.6
20260506092703 56 11 5.2 14.8 0.00 0.00 0.00 55 1009.6
20260506091803 56 11 4.3 14.8 0.00 0.00 0.00 57 1009.5
20260506090903 56 12 4.3 13.9 0.00 0.00 0.00 59 1009.6
20260506090004 56 4 4.3 14.8 0.00 0.00 0.00 60 1009.5
20260506085618 56 1 3.5 11.3 0.00 0.00 0.00 62 1009.5
20260506084503 55 12 6.1 13.9 0.00 0.00 0.00 63 1009.5
20260506083603 55 8 5.2 13.0 0.00 0.00 0.00 64 1009.5
20260506082703 54 13 5.2 13.9 0.00 0.00 0.00 65 1009.5
20260506081803 54 13 5.2 12.2 0.00 0.00 0.00 66 1009.4
20260506080903 54 11 4.3 13.9 0.00 0.00 0.00 64 1009.4
20260506080218 54 7 4.3 11.3 0.00 0.00 0.00 61 1009.4
20260506072703 54 12 4.3 13.0 0.00 0.00 0.00 53 1009.3
20260506071803 54 10 4.3 13.0 0.00 0.00 0.00 48 1009.3
20260506070903 54 13 4.3 12.2 0.00 0.00 0.00 40 1009.3
20260506061803 52 17 5.2 12.2 0.00 0.00 0.00 1 1009.1
20260506060903 52 2 3.5 12.2 0.00 0.00 0.00 1 1009.0